Dallas/Ft Worth, TX

3:50 PM CDT on August 18, 2017 (GMT -0500)
Dallas-Fort Worth International

Weather History for KDFW - January, 2013

Change the Weather History Date:

Tuesday, January 29, 2013

  Actual Average Record
Temperature  
Mean Temperature 67 °F 47 °F  
Max Temperature 80 °F 58 °F 84 °F (1911)
Min Temperature 54 °F 36 °F 11 °F (1961)
Degree Days  
Heating Degree Days 0 18  
Month to date heating degree days 460 558  
Since 1 July heating degree days 1200 1470  
Cooling Degree Days 2 0  
Month to date cooling degree days 10 0  
Year to date cooling degree days 10 0  
Growing Degree Days 17 (Base 50)    
Moisture  
Dew Point 57 °F    
Average Humidity 60    
Maximum Humidity 84    
Minimum Humidity 36    
Precipitation  
Precipitation 0.39 in 0.08 in 0.93 in (1999)
Month to date precipitation 4.06 1.97  
Year to date precipitation 4.06 1.97  
Snow  
Snow 0.00 in 0.10 in 3.30 in (1936)
Month to date snowfall 0.3 0.2  
Since 1 July snowfall 0.8 0.5  
Snow Depth 0.00 in    
Sea Level Pressure  
Sea Level Pressure 29.62 in    
Wind  
Wind Speed 19 mph (SSW)    
Max Wind Speed 36 mph    
Max Gust Speed 44 mph    
Visibility 9 miles    
Events Rain , Thunderstorm    
T = Trace of Precipitation, MM = Missing Value Source: NWS Daily Summary

Daily Weather History Graph

Daily Weather History Graph

Search for Another Location

Airport or City:

Trip Planner

Search our weather history database for the weather conditions in past years. The results will help you decide how hot, cold, wet, or windy it might be!

Date:

Astronomy

Jan. 29, 2013 Rise Set
Actual Time 7:25 AM CST 5:58 PM CST
Civil Twilight 6:58 AM CST 6:24 PM CST
Nautical Twilight 6:29 AM CST 6:53 PM CST
Astronomical Twilight 6:00 AM CST 7:22 PM CST
Moon 8:42 PM CST (1/29) 8:33 AM CST (1/29)
Length of Visible Light 11h 25m
Length of Day
10h 33m
Waning Gibbous, 93% of the Moon is Illuminated
Jan 29
Waning Gibbous
Feb 3
Last Quarter
Feb 10
New
Feb 17
First Quarter
Feb 25
Full

Hourly Weather History & Observations

Time (CST) Temp. Dew Point Humidity Pressure Visibility Wind Dir Wind Speed Gust Speed Precip Events Conditions
12:00 AM 71.1 °F 62.1 °F 73% 29.83 in 10.0 mi South 20.7 mph 28.8 mph N/A   Overcast
12:28 AM 71.1 °F 62.1 °F 73% 29.82 in 10.0 mi South 17.3 mph 32.2 mph N/A   Mostly Cloudy
12:53 AM 71.1 °F 63.0 °F 75% 29.80 in 10.0 mi South 21.9 mph 27.6 mph N/A   Mostly Cloudy
1:53 AM 70.0 °F 63.0 °F 78% 29.78 in 10.0 mi South 18.4 mph - N/A   Overcast
2:53 AM 70.0 °F 64.0 °F 81% 29.76 in 10.0 mi South 16.1 mph - N/A   Overcast
3:36 AM 70.0 °F 64.0 °F 81% 29.75 in 10.0 mi South 19.6 mph - N/A   Mostly Cloudy
3:53 AM 70.0 °F 64.0 °F 81% 29.73 in 10.0 mi South 18.4 mph 28.8 mph N/A   Mostly Cloudy
4:53 AM 70.0 °F 64.0 °F 81% 29.71 in 10.0 mi South 19.6 mph - N/A   Overcast
5:53 AM 71.1 °F 64.0 °F 78% 29.70 in 10.0 mi South 19.6 mph 26.5 mph N/A   Overcast
6:53 AM 72.0 °F 63.0 °F 73% 29.67 in 10.0 mi South 26.5 mph 33.4 mph N/A   Overcast
7:53 AM 72.0 °F 63.0 °F 73% 29.65 in 10.0 mi South 20.7 mph 33.4 mph N/A   Overcast
8:53 AM 72.0 °F 64.0 °F 76% 29.65 in 10.0 mi South 23.0 mph 27.6 mph N/A   Overcast
9:53 AM 72.0 °F 64.0 °F 76% 29.64 in 10.0 mi South 19.6 mph 31.1 mph 0.00 in   Overcast
10:42 AM 71.1 °F 64.9 °F 81% 29.63 in 10.0 mi South 17.3 mph 29.9 mph 0.00 in Rain Light Rain
10:53 AM 71.1 °F 64.9 °F 81% 29.60 in 10.0 mi South 20.7 mph 29.9 mph 0.00 in Rain Light Rain
11:27 AM 73.0 °F 64.9 °F 76% 29.59 in 10.0 mi South 23.0 mph 31.1 mph 0.00 in   Overcast
11:53 AM 73.0 °F 64.0 °F 73% 29.55 in 10.0 mi South 25.3 mph 32.2 mph 0.00 in   Overcast
12:53 PM 75.9 °F 63.0 °F 64% 29.49 in 10.0 mi South 33.4 mph 41.4 mph N/A   Overcast
1:53 PM 78.1 °F 63.0 °F 60% 29.44 in 10.0 mi South 31.1 mph 38.0 mph N/A   Overcast
2:53 PM 79.0 °F 61.0 °F 54% 29.41 in 10.0 mi South 29.9 mph 38.0 mph N/A   Overcast
3:17 PM 78.1 °F 61.0 °F 56% 29.46 in 10.0 mi SSW 24.2 mph 38.0 mph N/A Thunderstorm Thunderstorm
3:24 PM 68.0 °F 51.1 °F 55% 29.48 in 10.0 mi West 20.7 mph 34.5 mph N/A Thunderstorm Thunderstorm
3:34 PM 64.0 °F 53.1 °F 67% 29.49 in 10.0 mi WNW 24.2 mph 34.5 mph 0.00 in Rain , Thunderstorm Light Thunderstorms and Rain
3:42 PM 60.1 °F 55.0 °F 83% 29.52 in 1.0 mi West 20.7 mph - 0.03 in Rain , Thunderstorm Heavy Thunderstorms and Rain
3:53 PM 59.0 °F 55.0 °F 87% 29.52 in 1.0 mi WSW 12.7 mph - 0.21 in Rain , Thunderstorm Heavy Thunderstorms and Rain
4:05 PM 59.0 °F 55.9 °F 90% 29.52 in 3.0 mi West 9.2 mph - 0.08 in Rain , Thunderstorm Thunderstorms and Rain
4:15 PM 59.0 °F 55.9 °F 90% 29.54 in 5.0 mi WSW 8.1 mph - 0.09 in Rain Light Rain
4:53 PM 60.1 °F 55.0 °F 83% 29.54 in 4.0 mi West 9.2 mph - 0.12 in Rain Rain
5:53 PM 61.0 °F 55.9 °F 83% 29.57 in 6.0 mi West 23.0 mph 28.8 mph 0.06 in Rain Rain
6:53 PM 55.0 °F 46.0 °F 72% 29.57 in 10.0 mi NNW 5.8 mph - 0.00 in Rain Light Rain
7:53 PM 54.0 °F 48.0 °F 80% 29.59 in 10.0 mi Calm Calm - 0.00 in Rain Light Rain
8:53 PM 57.0 °F 46.9 °F 69% 29.63 in 10.0 mi WSW 10.4 mph - 0.00 in   Overcast
9:53 PM 57.0 °F 34.0 °F 42% 29.64 in 10.0 mi WSW 15.0 mph - N/A   Mostly Cloudy
10:53 PM 57.9 °F 30.0 °F 35% 29.68 in 10.0 mi West 15.0 mph 20.7 mph N/A   Overcast
11:53 PM 55.0 °F 28.0 °F 35% 29.68 in 5.0 mi WSW 16.1 mph - N/A   Widespread Dust